| time (UTC) | temp F | wind direction | speed MPH | gust MPH | rain 1hr in | rain 24hr in | rain mn in | humidity % | barometer mb |
| 20260504170552 | 71 | 226 | 7.0 | 10.0 | 0.00 | 0.01 | 0.00 | 55 | 1006.8 |
| 20260504151052 | 64 | 244 | 9.0 | 14.0 | 0.00 | 0.01 | 0.00 | 63 | 1008.1 |
| 20260504150553 | 64 | 227 | 8.0 | 13.0 | 0.00 | 0.01 | 0.00 | 62 | 1008.0 |
| 20260504141052 | 60 | 246 | 7.0 | 10.0 | 0.00 | 0.01 | 0.00 | 63 | 1008.4 |
| 20260504140552 | 60 | 220 | 7.0 | 10.0 | 0.00 | 0.01 | 0.00 | 64 | 1008.5 |
| 20260504130552 | 57 | 215 | 7.0 | 9.0 | 0.00 | 0.01 | 0.00 | 65 | 1009.0 |
| 20260504110552 | 51 | 228 | 3.0 | 6.0 | 0.00 | 0.01 | 0.00 | 69 | 1008.7 |
| 20260504100552 | 51 | 223 | 3.0 | 6.0 | 0.00 | 0.01 | 0.00 | 67 | 1009.1 |
| 20260504081550 | 51 | 219 | 5.0 | 6.0 | 0.00 | 0.01 | 0.00 | 66 | 1010.0 |
| 20260504081052 | 52 | 211 | 3.0 | 5.0 | 0.00 | 0.01 | 0.00 | 65 | 1010.0 |
| 20260504080552 | 51 | 210 | 3.0 | 6.0 | 0.00 | 0.01 | 0.00 | 65 | 1010.1 |
| 20260504050550 | 53 | 218 | 2.0 | 6.0 | 0.00 | 0.01 | 0.00 | 62 | 1012.0 |
| 20260504045551 | 53 | 213 | 5.0 | 7.0 | 0.00 | 0.01 | 0.00 | 63 | 1012.0 |
| 20260504045051 | 53 | 227 | 2.0 | 3.0 | 0.00 | 0.01 | 0.00 | 63 | 1012.1 |
| 20260504044551 | 53 | 219 | 5.0 | 6.0 | 0.00 | 0.01 | 0.00 | 64 | 1012.1 |
| 20260504044050 | 53 | 208 | 2.0 | 3.0 | 0.00 | 0.01 | 0.00 | 64 | 1012.0 |
| 20260504043550 | 53 | 214 | 3.0 | 5.0 | 0.00 | 0.01 | 0.00 | 64 | 1012.1 |
| 20260504043050 | 52 | 223 | 2.0 | 5.0 | 0.00 | 0.01 | 0.00 | 64 | 1012.1 |
| 20260504042551 | 52 | 211 | 2.0 | 5.0 | 0.00 | 0.01 | 0.00 | 65 | 1012.2 |
| 20260504042051 | 52 | 200 | 3.0 | 3.0 | 0.00 | 0.01 | 0.00 | 65 | 1012.3 |
| 20260504041550 | 52 | 220 | 1.0 | 2.0 | 0.00 | 0.01 | 0.00 | 65 | 1012.4 |
| 20260504041051 | 52 | 228 | 2.0 | 3.0 | 0.00 | 0.01 | 0.00 | 66 | 1012.4 |
| 20260504040551 | 52 | 204 | 3.0 | 6.0 | 0.00 | 0.01 | 0.00 | 66 | 1012.4 |
| 20260504040051 | 52 | 196 | 2.0 | 5.0 | 0.00 | 0.01 | 0.00 | 66 | 1012.5 |
| 20260504035551 | 52 | 198 | 2.0 | 5.0 | 0.00 | 0.01 | 0.01 | 67 | 1012.5 |
| 20260504035051 | 52 | 204 | 3.0 | 6.0 | 0.00 | 0.01 | 0.01 | 67 | 1012.6 |
| 20260504034551 | 52 | 194 | 2.0 | 5.0 | 0.00 | 0.01 | 0.01 | 67 | 1012.6 |
| 20260504034050 | 52 | 185 | 2.0 | 6.0 | 0.00 | 0.01 | 0.01 | 67 | 1012.7 |
| 20260504033550 | 51 | 178 | 3.0 | 3.0 | 0.00 | 0.01 | 0.01 | 68 | 1012.8 |
| 20260504033050 | 51 | 189 | 2.0 | 5.0 | 0.00 | 0.01 | 0.01 | 67 | 1012.8 |
| 20260504032551 | 51 | 183 | 3.0 | 5.0 | 0.00 | 0.01 | 0.01 | 67 | 1012.9 |
| 20260504032051 | 51 | 198 | 3.0 | 6.0 | 0.00 | 0.01 | 0.01 | 67 | 1012.9 |
| 20260504031550 | 51 | 202 | 2.0 | 5.0 | 0.00 | 0.01 | 0.01 | 67 | 1012.9 |
| 20260504031050 | 51 | 187 | 3.0 | 3.0 | 0.00 | 0.01 | 0.01 | 67 | 1013.0 |
| 20260504030550 | 51 | 196 | 2.0 | 3.0 | 0.00 | 0.01 | 0.01 | 67 | 1013.1 |
| 20260504030052 | 51 | 188 | 3.0 | 7.0 | 0.00 | 0.01 | 0.01 | 67 | 1013.1 |
| 20260504025552 | 51 | 197 | 3.0 | 5.0 | 0.00 | 0.01 | 0.01 | 67 | 1013.1 |
| 20260504025052 | 51 | 206 | 3.0 | 3.0 | 0.00 | 0.01 | 0.01 | 67 | 1013.2 |
| 20260504024552 | 51 | 198 | 3.0 | 6.0 | 0.00 | 0.01 | 0.01 | 68 | 1013.2 |
| 20260504024051 | 51 | 209 | 2.0 | 5.0 | 0.00 | 0.01 | 0.01 | 69 | 1013.2 |
| 20260504023551 | 51 | 185 | 2.0 | 3.0 | 0.00 | 0.01 | 0.01 | 68 | 1013.2 |
| 20260504023051 | 51 | 186 | 2.0 | 3.0 | 0.00 | 0.01 | 0.01 | 69 | 1013.2 |
| 20260504022551 | 51 | 164 | 3.0 | 5.0 | 0.00 | 0.01 | 0.01 | 69 | 1013.2 |
| 20260504022052 | 51 | 190 | 2.0 | 5.0 | 0.00 | 0.01 | 0.01 | 70 | 1013.1 |
| 20260504021552 | 50 | 173 | 3.0 | 6.0 | 0.00 | 0.01 | 0.01 | 70 | 1013.2 |
| 20260504021051 | 50 | 190 | 2.0 | 6.0 | 0.00 | 0.01 | 0.01 | 71 | 1013.3 |
| 20260504020552 | 50 | 183 | 3.0 | 6.0 | 0.00 | 0.01 | 0.01 | 71 | 1013.4 |
| 20260504020052 | 50 | 223 | 2.0 | 2.0 | 0.00 | 0.01 | 0.01 | 72 | 1013.4 |
| 20260504015552 | 50 | 173 | 3.0 | 3.0 | 0.00 | 0.01 | 0.01 | 73 | 1013.3 |
| 20260504015052 | 50 | 166 | 3.0 | 6.0 | 0.00 | 0.01 | 0.01 | 73 | 1013.3 |
| 20260504014552 | 50 | 183 | 3.0 | 5.0 | 0.00 | 0.01 | 0.01 | 74 | 1013.3 |
| 20260504014052 | 49 | 163 | 2.0 | 3.0 | 0.00 | 0.01 | 0.01 | 76 | 1013.3 |
| 20260504013552 | 49 | 171 | 1.0 | 2.0 | 0.00 | 0.01 | 0.01 | 77 | 1013.3 |
| 20260504013051 | 49 | 161 | 1.0 | 2.0 | 0.00 | 0.01 | 0.01 | 77 | 1013.3 |
| 20260504012553 | 49 | 171 | 1.0 | 2.0 | 0.00 | 0.01 | 0.01 | 77 | 1013.3 |
| 20260504012052 | 49 | 167 | 1.0 | 2.0 | 0.00 | 0.01 | 0.01 | 78 | 1013.4 |
| 20260504011552 | 49 | 192 | 1.0 | 2.0 | 0.00 | 0.01 | 0.01 | 78 | 1013.3 |
| 20260504011051 | 49 | 178 | 0.0 | 0.0 | 0.00 | 0.01 | 0.01 | 78 | 1013.5 |
| 20260504010551 | 49 | 174 | 0.0 | 0.0 | 0.00 | 0.01 | 0.01 | 78 | 1013.5 |
| 20260504010051 | 49 | 182 | 1.0 | 3.0 | 0.00 | 0.01 | 0.01 | 78 | 1013.4 |
| 20260504005551 | 49 | 122 | 0.0 | 1.0 | 0.00 | 0.01 | 0.01 | 78 | 1013.3 |
| 20260504005051 | 49 | 142 | 1.0 | 2.0 | 0.00 | 0.01 | 0.01 | 78 | 1013.4 |
| 20260504004551 | 49 | 144 | 1.0 | 2.0 | 0.00 | 0.01 | 0.01 | 77 | 1013.3 |
| 20260504004051 | 49 | 142 | 2.0 | 5.0 | 0.00 | 0.01 | 0.01 | 77 | 1013.3 |
| 20260504003551 | 49 | 161 | 2.0 | 5.0 | 0.00 | 0.01 | 0.01 | 78 | 1013.5 |
| 20260504003051 | 49 | 131 | 0.0 | 1.0 | 0.00 | 0.01 | 0.01 | 79 | 1013.5 |
| 20260504002551 | 49 | 100 | 1.0 | 3.0 | 0.00 | 0.01 | 0.01 | 79 | 1013.4 |
| 20260504002051 | 49 | 150 | 1.0 | 1.0 | 0.00 | 0.01 | 0.01 | 78 | 1013.6 |
| 20260504001551 | 50 | 149 | 1.0 | 2.0 | 0.00 | 0.01 | 0.01 | 78 | 1013.8 |
| 20260504001051 | 50 | 199 | 0.0 | 0.0 | 0.00 | 0.01 | 0.01 | 78 | 1013.7 |
| 20260504000551 | 50 | 135 | 0.0 | 1.0 | 0.00 | 0.01 | 0.01 | 77 | 1013.6 |
| 20260504000050 | 50 | 131 | 1.0 | 2.0 | 0.00 | 0.01 | 0.01 | 77 | 1013.6 |
| 20260503235552 | 50 | 166 | 2.0 | 2.0 | 0.00 | 0.01 | 0.01 | 78 | 1013.6 |
| 20260503235052 | 50 | 131 | 2.0 | 2.0 | 0.00 | 0.01 | 0.01 | 78 | 1013.6 |
| 20260503234552 | 50 | 146 | 2.0 | 5.0 | 0.00 | 0.01 | 0.01 | 78 | 1013.4 |
| 20260503234052 | 50 | 130 | 2.0 | 3.0 | 0.00 | 0.01 | 0.01 | 78 | 1013.5 |
| 20260503233551 | 50 | 126 | 1.0 | 5.0 | 0.00 | 0.01 | 0.01 | 79 | 1013.6 |
| 20260503233052 | 50 | 144 | 1.0 | 3.0 | 0.01 | 0.01 | 0.01 | 79 | 1013.7 |
| 20260503232552 | 50 | 139 | 1.0 | 2.0 | 0.01 | 0.01 | 0.01 | 80 | 1013.7 |
| 20260503232052 | 50 | 133 | 2.0 | 3.0 | 0.01 | 0.01 | 0.01 | 79 | 1013.7 |
| 20260503231551 | 49 | 135 | 1.0 | 3.0 | 0.01 | 0.01 | 0.01 | 80 | 1013.8 |
| 20260503231050 | 49 | 131 | 2.0 | 5.0 | 0.01 | 0.01 | 0.01 | 80 | 1013.9 |
| 20260503230550 | 49 | 142 | 1.0 | 3.0 | 0.01 | 0.01 | 0.01 | 80 | 1014.0 |
| 20260503230052 | 49 | 147 | 0.0 | 0.0 | 0.01 | 0.01 | 0.01 | 80 | 1014.1 |
| 20260503225551 | 49 | 120 | 0.0 | 0.0 | 0.01 | 0.01 | 0.01 | 80 | 1014.2 |
| 20260503225051 | 49 | 104 | 0.0 | 1.0 | 0.01 | 0.01 | 0.01 | 80 | 1014.3 |
| 20260503224551 | 49 | 132 | 1.0 | 3.0 | 0.01 | 0.01 | 0.01 | 78 | 1014.5 |
| 20260503224051 | 49 | 109 | 0.0 | 0.0 | 0.01 | 0.01 | 0.01 | 77 | 1014.8 |
| 20260503223550 | 49 | 164 | 0.0 | 1.0 | 0.01 | 0.01 | 0.01 | 77 | 1015.2 |
| 20260503223051 | 49 | 209 | 0.0 | 1.0 | 0.00 | 0.00 | 0.00 | 77 | 1015.6 |
| 20260503222551 | 50 | 263 | 2.0 | 3.0 | 0.00 | 0.00 | 0.00 | 75 | 1015.7 |
| 20260503222051 | 50 | 259 | 3.0 | 6.0 | 0.00 | 0.00 | 0.00 | 73 | 1015.8 |
| 20260503221551 | 51 | 244 | 6.0 | 13.0 | 0.00 | 0.00 | 0.00 | 70 | 1015.8 |
| 20260503221050 | 51 | 241 | 5.0 | 8.0 | 0.00 | 0.00 | 0.00 | 67 | 1015.8 |
| 20260503220550 | 53 | 294 | 7.0 | 14.0 | 0.00 | 0.00 | 0.00 | 64 | 1015.7 |
| 20260503220052 | 54 | 236 | 2.0 | 3.0 | 0.00 | 0.00 | 0.00 | 59 | 1015.5 |
| 20260503215552 | 55 | 248 | 8.0 | 18.0 | 0.00 | 0.00 | 0.00 | 55 | 1015.5 |
| 20260503215052 | 55 | 250 | 5.0 | 6.0 | 0.00 | 0.00 | 0.00 | 53 | 1015.2 |
| 20260503214551 | 55 | 237 | 9.0 | 15.0 | 0.00 | 0.00 | 0.00 | 49 | 1015.0 |
| 20260503214050 | 56 | 261 | 6.0 | 10.0 | 0.00 | 0.00 | 0.00 | 48 | 1015.0 |
| 20260503213550 | 57 | 223 | 6.0 | 10.0 | 0.00 | 0.00 | 0.00 | 46 | 1014.9 |
| 20260503213050 | 58 | 323 | 8.0 | 16.0 | 0.00 | 0.00 | 0.00 | 42 | 1014.8 |
| 20260503212552 | 59 | 232 | 3.0 | 6.0 | 0.00 | 0.00 | 0.00 | 40 | 1014.7 |
| 20260503212052 | 59 | 283 | 5.0 | 7.0 | 0.00 | 0.00 | 0.00 | 40 | 1014.7 |
| 20260503211552 | 59 | 244 | 5.0 | 6.0 | 0.00 | 0.00 | 0.00 | 40 | 1014.6 |
| 20260503211051 | 59 | 231 | 5.0 | 6.0 | 0.00 | 0.00 | 0.00 | 40 | 1014.7 |
| 20260503210551 | 59 | 262 | 7.0 | 10.0 | 0.00 | 0.00 | 0.00 | 40 | 1014.7 |
| 20260503210052 | 59 | 240 | 10.0 | 14.0 | 0.00 | 0.00 | 0.00 | 39 | 1014.7 |
| 20260503205552 | 59 | 240 | 5.0 | 7.0 | 0.00 | 0.00 | 0.00 | 39 | 1014.7 |
| 20260503205052 | 59 | 243 | 5.0 | 8.0 | 0.00 | 0.00 | 0.00 | 39 | 1014.8 |
| 20260503204550 | 59 | 228 | 12.0 | 15.0 | 0.00 | 0.00 | 0.00 | 38 | 1014.9 |
| 20260503204050 | 60 | 244 | 7.0 | 9.0 | 0.00 | 0.00 | 0.00 | 38 | 1015.0 |
| 20260503203552 | 60 | 254 | 2.0 | 5.0 | 0.00 | 0.00 | 0.00 | 38 | 1015.0 |
| 20260503203052 | 60 | 181 | 3.0 | 6.0 | 0.00 | 0.00 | 0.00 | 40 | 1015.1 |
| 20260503202552 | 60 | 225 | 7.0 | 6.0 | 0.00 | 0.00 | 0.00 | 37 | 1015.0 |
| 20260503202051 | 61 | 227 | 6.0 | 9.0 | 0.00 | 0.00 | 0.00 | 37 | 1015.1 |
| 20260503201550 | 61 | 252 | 2.0 | 6.0 | 0.00 | 0.00 | 0.00 | 38 | 1015.2 |
| 20260503201052 | 61 | 220 | 9.0 | 21.0 | 0.00 | 0.00 | 0.00 | 36 | 1015.1 |
| 20260503200552 | 62 | 257 | 3.0 | 6.0 | 0.00 | 0.00 | 0.00 | 38 | 1015.1 |
| 20260503200052 | 61 | 239 | 3.0 | 6.0 | 0.00 | 0.00 | 0.00 | 37 | 1015.2 |
| 20260503195552 | 61 | 216 | 7.0 | 12.0 | 0.00 | 0.00 | 0.00 | 36 | 1015.3 |
| 20260503195051 | 61 | 228 | 2.0 | 6.0 | 0.00 | 0.00 | 0.00 | 37 | 1015.2 |
| 20260503194551 | 62 | 224 | 7.0 | 14.0 | 0.00 | 0.00 | 0.00 | 37 | 1015.3 |
| 20260503194051 | 62 | 254 | 6.0 | 8.0 | 0.00 | 0.00 | 0.00 | 36 | 1015.4 |
| 20260503193551 | 61 | 245 | 5.0 | 8.0 | 0.00 | 0.00 | 0.00 | 38 | 1015.5 |
| 20260503193052 | 62 | 276 | 3.0 | 7.0 | 0.00 | 0.00 | 0.00 | 36 | 1015.6 |
| 20260503192552 | 62 | 251 | 3.0 | 7.0 | 0.00 | 0.00 | 0.00 | 35 | 1015.8 |
| 20260503192050 | 62 | 243 | 5.0 | 10.0 | 0.00 | 0.00 | 0.00 | 37 | 1015.9 |
| 20260503191550 | 61 | 219 | 5.0 | 13.0 | 0.00 | 0.00 | 0.00 | 38 | 1015.7 |
| 20260503191050 | 61 | 213 | 7.0 | 10.0 | 0.00 | 0.00 | 0.00 | 37 | 1015.9 |
| 20260503190550 | 61 | 257 | 7.0 | 7.0 | 0.00 | 0.00 | 0.00 | 35 | 1016.0 |
| 20260503190052 | 62 | 221 | 7.0 | 8.0 | 0.00 | 0.00 | 0.00 | 36 | 1016.0 |
| 20260503185552 | 61 | 238 | 5.0 | 6.0 | 0.00 | 0.00 | 0.00 | 36 | 1016.2 |
| 20260503185051 | 62 | 250 | 8.0 | 9.0 | 0.00 | 0.00 | 0.00 | 37 | 1016.2 |
| 20260503184550 | 61 | 230 | 6.0 | 13.0 | 0.00 | 0.00 | 0.00 | 40 | 1016.3 |
| 20260503184050 | 61 | 220 | 9.0 | 12.0 | 0.00 | 0.00 | 0.00 | 36 | 1016.5 |
| 20260503183550 | 61 | 247 | 5.0 | 13.0 | 0.00 | 0.00 | 0.00 | 37 | 1016.5 |
| 20260503183050 | 61 | 296 | 3.0 | 9.0 | 0.00 | 0.00 | 0.00 | 38 | 1016.5 |
| 20260503182552 | 61 | 241 | 6.0 | 12.0 | 0.00 | 0.00 | 0.00 | 38 | 1016.6 |
| 20260503182052 | 60 | 258 | 5.0 | 10.0 | 0.00 | 0.00 | 0.00 | 37 | 1016.7 |
| 20260503181551 | 60 | 226 | 6.0 | 8.0 | 0.00 | 0.00 | 0.00 | 37 | 1016.8 |
| 20260503181051 | 60 | 221 | 6.0 | 9.0 | 0.00 | 0.00 | 0.00 | 38 | 1016.8 |
| 20260503180551 | 60 | 246 | 7.0 | 13.0 | 0.00 | 0.00 | 0.00 | 39 | 1016.9 |
| 20260503180051 | 60 | 180 | 3.0 | 5.0 | 0.00 | 0.00 | 0.00 | 39 | 1017.0 |
| 20260503175551 | 61 | 249 | 6.0 | 7.0 | 0.00 | 0.00 | 0.00 | 37 | 1017.2 |
| 20260503175051 | 60 | 243 | 6.0 | 8.0 | 0.00 | 0.00 | 0.00 | 38 | 1017.1 |
| 20260503174550 | 60 | 253 | 3.0 | 7.0 | 0.00 | 0.00 | 0.00 | 39 | 1017.2 |
| 20260503174050 | 60 | 259 | 6.0 | 9.0 | 0.00 | 0.00 | 0.00 | 37 | 1017.3 |
| 20260503173550 | 60 | 239 | 7.0 | 13.0 | 0.00 | 0.00 | 0.00 | 38 | 1017.4 |
| 20260503173050 | 59 | 232 | 5.0 | 6.0 | 0.00 | 0.00 | 0.00 | 39 | 1017.5 |
| 20260503172552 | 59 | 285 | 7.0 | 10.0 | 0.00 | 0.00 | 0.00 | 38 | 1017.5 |
| 20260503172051 | 59 | 231 | 6.0 | 12.0 | 0.00 | 0.00 | 0.00 | 39 | 1017.5 |
| 20260503171551 | 59 | 241 | 8.0 | 13.0 | 0.00 | 0.00 | 0.00 | 38 | 1017.5 |
| 20260503171051 | 59 | 234 | 3.0 | 10.0 | 0.00 | 0.00 | 0.00 | 41 | 1017.6 |